Regional Weather Roundup
Issued by NWS Midland/Odessa, TX

Skip options and go directly to product.
Home | Oldest Version | Previous Version | Current Version | All | Text Only | Save Text | Print | Product List | Glossary On

Skip product version selection by date and time.   
408
ASUS44 KMAF 241810
RWRMAF
MIDLAND AREA WEATHER ROUNDUP
NATIONAL WEATHER SERVICE MIDLAND TX
100 PM CDT THU APR 24 2014

...IN SOUTHWEST TEXAS AND SOUTHEAST NEW MEXICO...

CITY           SKY/WX    TMP DP  RH WIND       PRES   REMARKS
ALPINE         FAIR      74  19  12 N7        30.16F
ANDREWS        FAIR      70  33  24 N13G22    30.05F
ARTESIA        SUNNY     68  27  21 N12G23    30.08F
BIG SPRING     FAIR      75  33  21 N18G24    30.04S
CARLSBAD       MOSUNNY   74  22  14 N15       30.07F
DRYDEN           N/A     90  21   8 N15G22    29.97F
FORT STOCKTON  FAIR      78  12   8 N8G23     30.05S
GUAD PASS      SUNNY     70  13  11 VRB7      30.15F
HOBBS          SUNNY     68  30  24 N17G24    30.08F
MARFA          FAIR      75  19  12 NW13G20   30.13F
MIDLAND AIRPK  FAIR      74  31  20 N20       30.03S
MIDLAND INTL   FAIR      75  32  20 N17G28    30.03S
ODESSA           N/A     74  30  19 MISG      30.05R
PECOS          FAIR      78  24  13 N12G20    30.04F
PRESIDIO       FAIR      86  18   8 W15       30.00F
SEMINOLE       FAIR      69  33  26 N15G21    30.08F
SNYDER         FAIR      73  34  23 NW14G25   30.00F
WINK           CLOUDY    76  28  17 N18       30.04S
$$
...OTHER STATIONS IN TEXAS...

CITY           SKY/WX    TMP DP  RH WIND       PRES   REMARKS
ABILENE        FAIR      76  37  24 N22       29.95S
AMARILLO       FAIR      68  26  20 N22G36    30.02F
AUSTIN         CLOUDY    77  66  68 S12       29.87F
BROWNSVILLE    FAIR      87  70  56 SE21G30   29.82F
CORPUS CHRISTI PTSUNNY   83  68  60 SE15G21   29.84F
DALLAS FTW     FAIR      80  54  40 W23G31    29.81R
DEL RIO        FAIR      88  55  32 NW12G21   29.88F
EL PASO        SUNNY     73  12   9 NE7       30.08F
HOUSTON INT    PTSUNNY   80  66  62 S9        29.88S
LUBBOCK        FAIR      71  33  24 N17G28    30.04F
SAN ANGELO     CLOUDY    83  29  14 NW18G25   29.95R HAZE
SAN ANTONIO    CLOUDY    76  66  71 S6        29.89F
WACO           FAIR      83  63  50 W10       29.83S
WICHITA FALLS  NOT AVBL
$$
...OTHER LOCATIONS IN NEW MEXICO...

CITY           SKY/WX    TMP DP  RH WIND       PRES   REMARKS
ALAMAGORDO     SUNNY     73   9   8 NW12G20   30.10S
ALBUQUERQUE    MOSUNNY   61   9  12 CALM      30.16F
CANNON AFB     SUNNY     63  25  23 N9        30.08F
CLOVIS         SUNNY     63  27  25 NW10      30.11F
HOLLOMAN AFB   SUNNY     72   5   7 NW15G21   30.08F
ROSWELL        SUNNY     67  29  24 VRB7G16   30.09S
RUIDOSO        SUNNY     59   5  11 N5        30.19F
SANTA FE       MOSUNNY   58   6  12 W9G16     30.14S
TRUTH OR CONSE SUNNY     69  11  10 NE14      30.11F
TUCUMCARI      SUNNY     64  21  19 VRB5      30.06F
$$

USA.gov is the U.S. government's official web portal to all federal, state and local government web resources and services.